Temp
20 19 18 18 18 18 18 19 19 19 18 18 18 18 19 19 19 19 19 19 18 18 18 18 18 17 17 17 17 17 17 17 16 16 16 16 16 16 15 15 15 14 14
19 19 19 19 19 18 18 18 18 19 18 18 18 18 19 19 19 19 19 19 19 19 18 18 18 18 18 17 17 18 17 17 16 16 16 16 15 15 15 15 14 14 13
18 19 19 19 19 19 18 17 18 18 18 18 17 18 18 19 19 19 19 19 19 19 19 19 18 18 18 18 18 17 16 16 16 16 16 15 15 15 15 14 14 14 13
18 17 18 19 19 18 18 17 17 17 16 17 18 18 18 18 18 19 19 19 19 18 18 19 19 19 18 18 18 17 16 16 16 16 15 15 15 15 15 14 14 14 13
18 17 17 17 19 17 17 17 17 17 17 17 17 18 18 18 18 19 19 19 18 18 18 18 19 19 18 18 18 17 16 16 16 16 15 15 15 15 15 14 13 13 13
18 17 18 18 17 17 17 16 17 16 17 17 17 17 18 18 18 18 19 19 19 18 18 18 18 18 19 18 18 17 17 16 15 15 15 15 15 14 14 14 13 13 12
17 17 17 17 16 16 16 16 16 16 15 16 16 16 16 18 18 18 19 18 19 18 18 17 17 17 18 19 18 17 17 17 15 16 15 14 13 13 13 13 13 12 12
17 16 16 16 16 16 16 16 16 15 15 14 16 16 17 20 20 18 19 19 19 18 17 18 18 17 16 16 16 17 17 17 16 15 15 14 13 13 13 13 13 12 12
16 16 16 16 16 15 15 15 15 15 15 14 16 16 16 18 18 17 17 17 16 16 17 17 16 16 16 17 17 18 17 17 17 16 14 14 13 13 13 13 13 12 12
16 16 15 15 15 15 15 15 15 15 15 15 14 14 16 16 17 17 17 17 16 15 16 17 16 16 16 17 17 17 17 17 17 15 15 14 14 13 13 13 13 12 11
15 15 15 14 14 14 14 14 15 14 14 15 15 15 13 14 14 15 15 17 16 17 17 16 15 16 16 15 17 16 16 15 16 15 14 14 14 14 14 13 13 12 11
15 15 15 14 14 14 14 14 14 14 14 14 14 15 16 14 14 14 14 16 16 16 16 16 16 16 16 16 16 16 15 14 14 13 12 13 13 13 13 13 12 11 10
14 14 14 14 14 14 14 14 13 13 13 14 14 15 16 16 16 16 14 15 14 15 15 16 16 15 15 15 15 16 15 13 13 12 12 11 12 12 12 12 11 10 9
14 14 14 14 14 14 14 13 13 13 14 14 15 16 16 16 15 14 14 14 14 14 15 15 15 15 15 15 15 14 13 12 12 12 12 11 11 11 11 11 10 9 9
15 14 14 15 14 14 13 13 13 13 13 14 14 14 13 14 13 13 13 13 13 14 15 15 14 15 15 14 14 13 13 12 11 11 11 10 10 10 11 10 10 9 8
13 13 13 14 13 13 13 13 13 13 13 14 14 13 13 13 13 13 13 13 13 13 13 14 14 14 13 13 13 13 12 11 11 10 10 10 9 10 10 9 9 8 7
11 12 12 12 13 13 13 13 13 13 13 13 13 13 13 13 12 12 12 12 12 12 12 12 12 12 12 12 13 12 11 11 10 10 9 9 9 9 8 8 7 8 7
10 10 10 10 10 10 10 10 10 10 10 10 11 11 10 10 10 10 10 11 11 11 11 11 11 11 11 11 11 10 10 10 9 9 9 8 8 8 8 7 7 7 6
8 8 9 8 8 8 8 8 8 8 8 8 8 8 8 8 9 9 9 8 8 9 9 9 10 9 9 10 9 8 8 8 8 8 8 7 7 7 8 7 6 5 5
7 6 6 6 7 6 6 7 7 7 7 7 6 6 7 7 7 7 7 7 8 8 8 8 8 8 8 7 7 6 6 6 6 6 6 7 6 6 6 5 5 5 4
5 5 6 5 5 5 4 5 6 6 6 6 6 6 6 6 6 6 5 6 6 7 7 7 7 7 6 5 6 6 5 6 5 6 6 6 5 6 5 5 4 5 4
4 4 4 4 4 4 3 3 4 5 5 5 5 5 5 5 4 4 4 4 4 5 5 6 7 7 7 6 6 6 6 5 4 5 4 4 5 5 5 5 4 5 4
3 3 3 3 3 3 2 2 2 3 3 3 3 4 4 4 4 5 4 4 4 4 4 4 5 5 6 6 6 6 5 5 6 7 4 4 4 3 4 4 4 4 3
3 3 3 3 3 2 1 1 2 3 3 3 3 3 3 3 4 3 3 3 3 4 4 4 4 4 4 5 5 6 6 5 5 5 4 4 2 2 2 3 3 3 2
2 2 2 2 2 2 0 0 1 2 3 3 2 2 1 2 2 1 2 1 1 2 2 3 3 4 4 4 4 5 5 3 3 2 3 2 0 0 0 0 1 1 2
1 1 1 1 0 1 -1 -0 0 2 2 1 1 2 1 1 0 -0 0 0 0 1 1 2 2 3 3 3 4 4 4 3 3 0 2 1 -1 0 -1 -1 -1 0 0
Height
809 812 813 815 817 820 822 824 827 829 830 831 832 832 833 833 833 834 833 831 831 832 832 832 832 832 831 831 831 830 829 827 827 826 826 825 825 823 822 821 819 818 818
805 807 809 812 813 815 817 820 822 825 827 829 830 830 830 831 831 831 831 831 829 829 829 829 830 830 829 829 829 828 827 826 825 824 823 824 823 823 821 819 818 817 816
802 804 806 809 809 811 813 816 819 821 823 825 827 828 828 827 827 828 828 828 828 827 827 827 827 828 827 827 826 826 825 824 824 823 822 822 821 820 819 818 817 816 815
799 801 802 804 806 808 811 812 813 816 818 819 822 823 824 825 825 825 824 825 825 825 824 824 823 823 823 823 823 823 822 821 821 820 820 820 819 818 817 816 815 814 814
796 797 798 799 802 804 807 808 809 809 812 813 814 819 818 821 821 821 820 820 821 820 821 820 820 819 818 818 818 818 817 817 816 816 816 815 815 815 813 813 812 811 811
791 793 794 795 798 799 800 801 804 806 808 808 810 811 813 812 817 816 816 815 816 816 816 816 815 814 813 814 815 814 813 812 813 813 814 812 812 812 811 810 809 809 808
787 789 790 791 792 793 794 797 798 801 802 805 808 808 807 808 809 811 812 811 811 811 811 811 810 810 808 808 809 810 810 809 808 808 811 811 810 809 808 808 806 805 806
781 784 785 786 787 789 790 791 793 794 797 800 802 805 803 801 802 805 804 806 805 807 805 805 804 804 806 806 806 806 806 805 805 805 806 806 806 807 805 805 805 803 804
775 777 779 780 782 783 784 785 788 788 791 793 795 799 803 796 799 799 798 801 801 802 800 801 800 800 802 802 801 800 800 801 801 801 803 803 802 802 802 802 801 800 801
770 771 773 775 776 777 778 779 782 782 786 787 790 792 794 793 792 794 792 795 800 800 797 795 799 797 798 797 796 795 795 793 790 797 797 798 798 797 798 797 796 796 797
765 767 769 770 771 772 773 775 776 778 779 781 785 789 792 791 793 794 796 798 799 796 795 796 795 793 793 793 790 789 788 787 782 787 790 790 791 792 792 792 792 792 792
761 763 764 765 767 767 769 769 771 774 776 780 783 785 784 787 789 791 795 794 792 790 791 789 788 788 789 789 787 784 782 782 782 783 785 787 787 787 787 787 786 786 787
757 758 760 760 760 761 763 765 767 770 772 776 778 780 782 783 784 786 788 790 790 785 781 780 780 781 781 780 776 775 772 773 774 776 778 780 782 781 781 782 782 783 783
753 754 755 755 756 758 759 759 762 766 769 773 775 776 778 779 779 780 782 786 783 781 778 774 774 772 771 770 768 766 767 770 770 771 772 773 773 774 774 777 778 778 781
749 750 750 750 751 753 754 756 758 762 765 769 771 772 774 774 776 777 778 779 777 773 768 766 766 765 763 760 759 759 759 760 762 765 766 769 768 766 766 770 772 774 775
745 746 745 747 748 751 753 754 757 759 762 765 767 769 769 770 770 772 772 771 770 767 760 761 759 758 757 755 753 752 751 754 755 757 759 759 760 761 762 763 763 764 766
741 744 746 747 748 750 751 752 755 757 760 762 763 764 764 766 766 766 766 764 763 762 758 756 755 754 751 750 748 746 746 747 748 748 752 752 751 753 755 756 757 757 760
744 748 748 749 750 750 752 753 754 756 758 758 759 761 760 762 762 762 762 760 760 759 756 751 750 747 746 745 743 741 741 740 740 741 742 745 746 745 747 749 750 752 754
750 751 751 752 753 755 755 756 757 758 759 759 759 760 761 762 763 762 761 759 759 757 754 749 744 743 741 740 738 737 735 735 734 735 735 737 738 740 741 742 744 748 749
756 756 757 758 759 759 759 760 760 760 761 761 760 759 760 760 761 760 759 758 755 753 749 745 740 739 737 736 736 735 732 730 729 730 730 729 730 732 735 735 737 739 743
759 760 760 761 761 761 762 762 762 762 761 761 760 759 758 758 758 758 757 755 753 750 746 741 736 733 730 729 728 727 726 725 723 721 723 724 727 726 726 729 729 731 736
762 762 762 762 763 763 763 762 761 760 759 760 758 757 757 756 755 755 754 752 750 747 743 739 734 730 726 724 722 721 720 720 717 713 716 716 715 716 719 722 722 723 730
763 764 764 765 765 765 762 762 761 760 759 759 758 757 756 754 753 753 750 747 745 743 739 736 730 728 723 722 718 714 713 711 707 707 705 707 707 709 711 715 719 720 723
766 766 765 765 765 765 764 762 761 760 761 760 758 756 754 753 752 750 746 743 742 738 734 731 727 723 721 717 714 710 706 704 702 700 702 702 700 702 706 709 712 716 720
766 767 766 766 766 766 764 763 762 762 760 759 758 756 754 752 750 748 744 740 737 732 729 726 721 717 714 710 708 704 700 699 697 695 696 698 698 699 704 705 708 712 714
767 768 766 766 765 766 764 764 762 761 760 758 756 754 751 749 748 745 741 736 731 728 724 719 714 709 706 702 700 698 695 693 693 692 690 694 695 698 702 702 705 709 713
Wind_Speed
18 17 17 18 16 15 16 15 15 15 14 13 13 12 12 12 12 11 10 13 12 12 11 10 12 10 9 9 9 9 9 9 11 11 9 7 5 3 3 4 6 6 8
17 18 19 19 19 19 17 17 16 15 14 13 14 13 13 12 13 13 13 12 15 15 14 14 14 12 11 11 12 12 12 12 12 13 12 10 8 6 5 4 4 5 6
15 17 17 18 20 20 19 18 17 16 15 14 13 13 13 14 14 14 14 15 14 16 18 17 17 17 16 15 15 13 13 14 14 14 13 12 10 8 8 6 6 5 5
14 16 19 18 19 18 18 20 21 18 19 16 15 14 13 14 15 16 15 15 14 14 15 19 20 21 21 19 18 17 15 15 15 16 15 14 12 11 10 8 8 6 5
14 16 19 20 18 19 20 20 22 24 21 23 20 16 14 15 16 17 18 17 17 17 16 17 19 21 22 23 22 20 17 16 16 18 18 17 15 14 12 11 9 7 5
15 17 17 19 21 23 25 24 24 22 23 19 18 16 16 14 17 18 18 17 18 18 18 19 18 18 21 22 21 20 19 16 16 19 19 18 17 15 14 13 11 9 8
17 18 18 20 22 26 27 27 26 24 24 18 14 12 15 17 19 23 19 18 18 19 18 17 18 16 16 21 21 20 19 18 17 20 21 19 18 17 16 14 13 11 9
20 19 20 21 22 26 27 28 28 19 22 23 13 5 2 13 17 18 19 21 20 19 19 22 22 21 18 15 15 18 19 19 20 22 23 21 19 17 16 16 15 13 11
19 20 22 23 22 26 27 29 32 29 22 22 27 9 3 7 3 7 8 14 16 16 20 21 21 19 19 22 21 21 20 19 18 21 22 21 18 18 19 18 17 15 13
18 19 21 23 26 28 27 29 31 25 25 24 21 28 23 4 2 2 4 11 13 20 20 22 22 23 23 26 26 23 24 24 22 26 23 22 19 20 19 19 17 16 12
15 17 20 24 26 27 26 26 28 28 23 20 21 17 16 14 12 6 5 14 16 16 21 24 18 24 24 28 28 31 31 31 27 29 24 21 21 22 21 19 18 15 10
14 17 19 20 21 27 29 24 24 25 27 24 22 23 17 8 11 7 7 16 14 17 18 21 26 28 30 31 35 37 34 31 28 25 21 21 21 20 19 19 17 14 14
15 16 19 21 23 26 27 21 21 24 22 23 24 23 25 27 23 19 10 10 7 15 17 29 33 31 35 37 41 40 36 34 32 29 23 20 20 19 20 19 15 15 15
15 16 18 21 21 24 29 24 24 22 24 24 22 22 26 25 23 19 18 14 6 11 20 22 23 25 32 38 39 38 32 34 33 29 27 23 21 21 21 23 18 17 19
15 15 18 18 19 25 24 23 22 24 25 21 15 14 16 16 16 18 21 23 16 12 13 16 20 26 28 28 34 32 33 36 33 31 27 23 23 25 25 24 20 21 24
12 10 10 16 16 14 14 15 16 15 16 15 15 15 15 16 18 20 21 22 25 23 9 13 16 23 27 27 26 29 33 35 36 33 30 28 27 27 25 23 24 23 21
19 14 8 8 9 7 8 10 11 11 14 15 14 16 18 15 15 17 19 21 24 22 13 20 21 24 25 28 29 30 33 37 38 36 34 32 31 29 27 24 21 19 20
19 17 16 15 14 13 11 10 8 6 4 3 1 4 6 9 12 13 14 16 19 23 21 18 18 22 25 28 30 31 35 38 39 39 35 33 32 28 25 23 21 20 20
17 15 15 14 14 14 13 11 9 8 7 6 5 6 7 8 9 10 11 13 15 17 20 21 20 19 21 25 28 30 33 37 40 41 36 33 31 29 26 23 20 20 18
14 15 14 13 13 12 12 10 9 8 7 7 7 7 7 8 10 12 12 14 15 17 18 19 20 19 19 22 24 21 26 33 37 38 36 36 32 29 25 23 22 20 20
13 12 12 13 12 13 12 9 7 7 7 7 7 8 8 10 11 12 12 15 18 18 18 19 19 19 12 13 16 24 26 27 32 38 37 36 30 30 30 26 24 21 22
12 12 12 12 12 12 11 11 8 8 8 7 9 9 10 11 13 15 16 16 16 19 20 21 20 20 23 21 23 24 23 14 6 31 28 29 35 34 34 32 30 26 23
11 12 11 10 10 10 12 12 10 7 7 8 9 10 12 12 15 15 17 18 18 18 19 23 24 23 26 25 25 23 24 20 24 19 30 23 32 31 33 34 31 27 23
9 8 9 8 8 9 9 10 10 8 6 7 8 10 11 14 14 18 21 21 21 21 22 23 24 26 28 30 29 29 29 29 22 22 21 7 21 23 24 28 29 26 22
8 7 5 7 6 6 9 10 9 7 8 9 9 10 12 12 14 19 22 23 24 25 24 25 28 32 32 30 29 28 23 17 7 12 23 7 10 10 15 19 22 22 20
4 4 4 4 5 5 7 8 10 7 8 10 11 12 12 14 20 23 25 25 25 26 27 31 33 31 30 32 29 26 26 18 11 4 17 16 12 8 3 10 16 19 18
Wind_Direction
213 212 212 203 201 202 206 210 217 219 225 229 233 238 244 248 254 258 259 260 246 245 247 248 258 268 267 275 277 277 282 282 267 266 265 257 261 282 322 341 350 2 358
216 211 217 211 209 207 209 211 211 220 226 233 240 242 246 252 254 256 261 265 260 248 247 247 254 258 261 263 274 279 283 284 265 257 256 250 248 261 284 299 320 338 352
221 217 222 224 221 219 211 209 216 216 223 232 241 249 252 252 253 254 261 264 265 258 253 255 256 261 267 268 272 274 279 283 276 260 252 246 245 254 268 280 298 316 327
219 221 219 225 227 230 224 214 210 221 224 223 241 241 253 260 263 260 257 258 258 253 261 259 258 259 261 265 269 272 274 275 268 263 249 245 246 253 262 270 277 279 305
227 227 229 228 227 225 224 221 219 215 220 221 223 242 248 262 262 264 259 256 254 252 256 262 263 263 259 256 260 266 269 264 258 251 243 239 244 248 253 260 260 257 272
234 235 236 238 232 225 224 219 222 223 224 226 219 223 243 252 260 261 261 256 255 252 255 258 261 264 258 256 258 266 270 261 260 246 244 237 240 245 252 252 242 246 257
242 236 238 239 232 229 227 223 214 218 219 219 228 243 255 253 257 255 258 256 254 252 252 253 256 255 252 249 253 264 272 265 249 241 249 240 240 242 249 246 242 242 249
236 235 235 236 236 233 231 224 215 209 217 214 208 237 276 264 249 250 250 252 249 249 247 251 250 246 243 245 250 267 270 262 253 237 240 238 239 245 249 249 246 241 245
235 234 238 237 240 235 230 224 225 215 218 216 213 194 187 221 206 223 247 254 253 250 251 254 252 253 246 249 256 262 262 258 252 239 235 239 243 247 254 252 245 240 241
239 240 241 238 242 237 231 224 225 215 222 208 209 222 243 251 182 288 347 313 275 254 253 261 265 261 257 255 256 260 261 245 249 238 237 242 245 249 260 254 245 241 223
235 238 235 240 243 242 236 230 224 215 211 211 211 210 224 238 247 216 275 267 265 289 288 267 256 264 262 258 256 253 258 259 236 233 234 240 250 257 259 259 249 236 233
234 234 234 236 238 242 234 221 218 211 214 216 221 223 213 187 209 196 227 259 271 277 267 274 280 279 266 269 266 263 266 247 239 236 239 251 252 254 252 256 228 222 241
229 233 238 237 246 247 231 218 217 213 216 222 225 229 235 240 234 234 233 264 253 277 281 274 270 266 266 266 269 269 259 242 234 231 236 242 252 249 249 239 214 237 248
230 247 238 239 241 239 235 216 211 223 227 242 250 253 250 252 251 243 231 239 254 256 266 256 265 261 264 269 271 268 258 245 236 236 239 236 234 240 232 222 239 249 265
238 242 241 224 236 238 234 230 227 240 225 239 236 252 254 262 259 257 260 239 240 268 272 255 244 263 267 269 265 261 255 245 234 235 237 237 228 225 225 230 246 259 271
209 193 182 187 190 196 198 198 201 201 206 222 239 243 250 258 271 272 275 269 251 253 261 253 251 265 280 267 259 257 252 244 233 233 233 228 225 226 226 236 241 252 256
107 113 136 170 174 191 206 200 199 208 222 229 237 249 255 264 271 274 271 268 258 256 266 278 271 273 267 262 266 258 248 241 235 232 232 227 224 224 231 235 241 247 250
82 87 88 85 82 89 98 94 98 105 114 108 265 271 299 298 300 296 290 290 283 275 267 274 276 268 265 267 266 259 250 242 237 233 226 224 224 224 226 232 240 243 244
87 83 84 84 74 69 68 68 65 60 47 42 23 8 354 339 322 321 317 311 301 299 293 287 289 286 271 265 263 258 251 245 241 238 224 220 224 226 226 229 233 238 241
78 74 73 72 71 62 55 50 47 46 39 31 19 9 356 347 331 322 309 299 295 294 291 286 287 289 279 271 266 255 251 244 240 235 228 219 216 222 226 221 225 237 241
73 74 74 71 71 62 51 47 41 39 28 14 7 1 351 330 324 316 312 306 303 298 294 289 283 276 252 235 234 250 244 243 239 233 229 226 224 221 216 219 226 229 242
68 67 63 63 63 56 47 37 37 23 18 7 2 354 345 341 334 327 320 314 306 296 290 290 288 284 281 266 263 249 241 226 236 234 225 228 220 217 223 222 224 226 237
68 65 64 66 65 52 39 26 23 23 17 5 356 344 337 336 334 325 325 318 307 300 292 289 286 286 289 289 276 252 238 232 239 248 216 222 222 218 220 225 222 226 230
68 67 61 60 70 54 36 24 27 17 7 359 349 343 337 328 328 333 326 318 310 305 299 297 294 295 292 291 287 272 257 248 238 235 222 245 220 214 216 223 224 223 225
69 66 64 70 67 45 36 28 20 9 2 352 341 333 330 327 333 330 328 321 314 308 306 302 299 298 300 300 294 282 249 221 232 228 212 205 204 171 200 217 217 215 211
59 52 71 75 64 52 38 31 21 13 359 346 337 335 339 335 328 327 325 320 312 307 309 308 305 302 297 301 300 289 259 234 224 210 220 197 174 162 152 205 205 202 199